Location: Goettingen
(51.5300°N, 9.9433°E)
Time: 05:53:10
(UTC+01:00)

ISS - Pass Details

Date: 10 December 2019
Orbit: 411 x 421 km, 51.6° (Epoch: 15 December)

Event Time Altitude Azimuth Distance (km) Brightness Sun altitude
Rises 18:23:51 0° 278° (W) 2,359 1.3 -19.4°
Reaches altitude 10° 18:27:10 10° 242° (WSW) 1,494 0.1 -19.9°
Maximum altitude 18:28:16 11° 223° (SW) 1,418 -0.3 -20.1°
Drops below altitude 10° 18:29:22 10° 204° (SSW) 1,492 -0.5 -20.2°
Sets 18:32:41 0° 168° (SSE) 2,353 0.0 -20.7°
